Find Starlink 4634

NORAD ID: 53967 Int'l Des: 2022-125 Owner: SPXS Country: US Constellation: starlink operational
LEOCIRCULAR

当前视图

正在加载3D地球...

About Starlink 4634

Starlink 4634 (NORAD 53967) is a starlink constellation satellite (v1.5) launched Oct 5, 2022 by SPXS of US. It operates in LEO, CIRCULAR orbit with a mass of 305.00 kg.

关于 Starlink 4634

正在加载描述...

即将过境

Passes for default location (London). Set your location on the main map for personalized predictions.

高度历史

Loading altitude history...

两行轨道根数

1 53967U 22125D 26170.18296000 .00001052 00000-0 84195-4 0 9993
2 53967 53.1605 128.4244 0001377 58.8072 301.3054 15.08843088204642
Epoch: Jun 19, 2026 • Age: 6 hours

当前状态

高度 558.8 km
速度 7.58 km/s
星下点 -52.37°S, 39.93°W
发射日期 Oct 5, 2022
运行时间 3.7 years
类型 internet

技术详情

分类 Payload
质量 305.00 kg
干质量 290.00 kg
总质量 305.00 kg
长度 0.20 m
直径 2.80 m
跨度 9.00 m
形状 Box + pan
制造商 SPXS
平台类型 Starlink
阶段状态 In Orbit
所有者/国家 SPXS/US

Most Searched